Big Bear Station Historical Data
Daily Summary for March 11, 2017 Units:  English    Metric   Both
Next Day »
Daily Weekly Monthly Yearly Custom
  High: Low: Average:
Temperature: 63.1 °F 29.1 °F 44.7 °F
Dew Point: 39.4 °F 23.5 °F 29.9 °F
Humidity: 95% 23% 63%
Wind Speed: 6.3mph 0.0mph 0.9mph
Wind Gust: -999.0mph - -
Wind- - West
Pressure: 30.28 in 30.22 in -
Precipitation: 0.00 in    
Historical Graphs
 
 
Tabular Data for March 11, 2017
Time Temperature Dew Point Pressure Wind Wind Speed Wind Gust Humidity Rainfall Rate (Hourly)
00:00 35.1 °F 28.9 °F 30.24 in Calm   -999.0 mph 78% 0 in
00:15 34.7 °F 28.9 °F 30.24 in Calm   -999.0 mph 79% 0 in
00:30 34.3 °F 28.5 °F 30.24 in Calm   -999.0 mph 79% 0 in
00:45 34.2 °F 28.7 °F 30.24 in Calm   -999.0 mph 80% 0 in
01:01 33.6 °F 29.0 °F 30.24 in Calm   -999.0 mph 83% 0 in
01:16 33.3 °F 28.7 °F 30.24 in Calm   -999.0 mph 83% 0 in
01:31 32.9 °F 28.3 °F 30.23 in Calm   -999.0 mph 83% 0 in
01:46 32.5 °F 27.6 °F 30.23 in Calm   -999.0 mph 82% 0 in
02:02 32.4 °F 27.5 °F 30.23 in Calm   -999.0 mph 82% 0 in
02:17 32.0 °F 27.1 °F 30.23 in Calm   -999.0 mph 82% 0 in
02:32 32.0 °F 28.0 °F 30.22 in Calm   -999.0 mph 85% 0 in
02:47 31.6 °F 27.6 °F 30.22 in Calm   -999.0 mph 85% 0 in
03:02 31.1 °F 27.1 °F 30.22 in Calm   -999.0 mph 85% 0 in
03:18 31.3 °F 27.3 °F 30.22 in South 2.7 mph -999.0 mph 85% 0 in
03:33 30.6 °F 26.6 °F 30.22 in Calm   -999.0 mph 85% 0 in
03:48 30.4 °F 27.0 °F 30.22 in Calm   -999.0 mph 87% 0 in
04:03 30.0 °F 27.2 °F 30.22 in Calm   -999.0 mph 89% 0 in
04:18 30.0 °F 27.7 °F 30.22 in Calm   -999.0 mph 91% 0 in
04:34 29.8 °F 27.8 °F 30.22 in Calm   -999.0 mph 92% 0 in
04:49 30.0 °F 28.0 °F 30.22 in Calm   -999.0 mph 92% 0 in
05:04 29.5 °F 27.5 °F 30.23 in Calm   -999.0 mph 92% 0 in
05:19 29.5 °F 27.5 °F 30.23 in Calm   -999.0 mph 92% 0 in
05:34 29.7 °F 27.7 °F 30.23 in Calm   -999.0 mph 92% 0 in
05:50 29.5 °F 27.7 °F 30.23 in Calm   -999.0 mph 93% 0 in
06:05 29.3 °F 27.8 °F 30.23 in Calm   -999.0 mph 94% 0 in
06:20 29.1 °F 27.6 °F 30.23 in Calm   -999.0 mph 94% 0 in
06:35 29.1 °F 27.6 °F 30.23 in Calm   -999.0 mph 94% 0 in
06:51 29.5 °F 28.2 °F 30.24 in Calm   -999.0 mph 95% 0 in
07:06 29.7 °F 28.2 °F 30.25 in Calm   -999.0 mph 94% 0 in
07:21 31.6 °F 29.5 °F 30.26 in Calm   -999.0 mph 92% 0 in
07:36 32.0 °F 30.5 °F 30.26 in Calm   -999.0 mph 94% 0 in
07:51 32.7 °F 29.8 °F 30.26 in Calm   -999.0 mph 89% 0 in
08:07 33.3 °F 30.7 °F 30.26 in Calm   -999.0 mph 90% 0 in
08:22 34.7 °F 31.2 °F 30.26 in Calm   -999.0 mph 87% 0 in
08:37 36.7 °F 31.4 °F 30.26 in Calm   -999.0 mph 81% 0 in
08:52 39.4 °F 30.4 °F 30.26 in Calm   -999.0 mph 70% 0 in
09:07 42.4 °F 32.6 °F 30.26 in NW 1.1 mph -999.0 mph 68% 0 in
09:23 45.1 °F 33.6 °F 30.26 in SE 1.7 mph -999.0 mph 64% 0 in
09:38 48.9 °F 31.1 °F 30.26 in NNE 2.7 mph -999.0 mph 50% 0 in
09:53 53.8 °F 28.8 °F 30.26 in SW 1.1 mph -999.0 mph 38% 0 in
10:08 56.8 °F 28.7 °F 30.27 in Calm   -999.0 mph 34% 0 in
10:23 57.9 °F 30.4 °F 30.28 in Calm   -999.0 mph 35% 0 in
10:39 59.7 °F 31.3 °F 30.27 in East 1.1 mph -999.0 mph 34% 0 in
10:54 60.3 °F 30.3 °F 30.27 in SSW 1.1 mph -999.0 mph 32% 0 in
11:09 60.6 °F 30.6 °F 30.27 in Calm   -999.0 mph 32% 0 in
11:24 61.3 °F 29.6 °F 30.26 in Calm   -999.0 mph 30% 0 in
11:39 61.7 °F 27.4 °F 30.26 in NNW 3.7 mph -999.0 mph 27% 0 in
11:55 63.1 °F 26.7 °F 30.26 in WSW 1.1 mph -999.0 mph 25% 0 in
12:10 61.7 °F 24.5 °F 30.25 in SSW 1.1 mph -999.0 mph 24% 0 in
12:25 61.7 °F 24.5 °F 30.25 in NW 3.2 mph -999.0 mph 24% 0 in
12:40 61.7 °F 23.5 °F 30.25 in WNW 3.7 mph -999.0 mph 23% 0 in
12:56 61.3 °F 24.2 °F 30.24 in NW 3.7 mph -999.0 mph 24% 0 in
13:11 61.3 °F 29.6 °F 30.24 in NW 6.3 mph -999.0 mph 30% 0 in
13:26 61.3 °F 36.1 °F 30.24 in NNW 3.7 mph -999.0 mph 39% 0 in
13:41 61.2 °F 30.3 °F 30.24 in SW 1.7 mph -999.0 mph 31% 0 in
13:56 60.3 °F 35.9 °F 30.24 in NNW 3.7 mph -999.0 mph 40% 0 in
14:12 59.9 °F 36.7 °F 30.24 in Calm   -999.0 mph 42% 0 in
14:27 60.3 °F 39.4 °F 30.24 in NW 2.2 mph -999.0 mph 46% 0 in
14:42 59.9 °F 37.9 °F 30.24 in NNW 3.2 mph -999.0 mph 44% 0 in
14:57 59.2 °F 37.3 °F 30.24 in NW 2.2 mph -999.0 mph 44% 0 in
15:12 58.5 °F 37.2 °F 30.23 in NW 2.7 mph -999.0 mph 45% 0 in
15:28 58.3 °F 35.9 °F 30.23 in NW 3.2 mph -999.0 mph 43% 0 in
15:43 58.6 °F 35.6 °F 30.23 in North 1.1 mph -999.0 mph 42% 0 in
15:58 58.3 °F 32.1 °F 30.23 in Calm   -999.0 mph 37% 0 in
16:13 57.6 °F 32.2 °F 30.23 in NW 3.2 mph -999.0 mph 38% 0 in
16:28 61.2 °F 34.0 °F 30.23 in WNW 3.2 mph -999.0 mph 36% 0 in
16:44 58.3 °F 33.4 °F 30.23 in West 1.1 mph -999.0 mph 39% 0 in
16:59 55.4 °F 30.8 °F 30.23 in Calm   -999.0 mph 39% 0 in
17:14 53.4 °F 30.9 °F 30.23 in Calm   -999.0 mph 42% 0 in
17:29 52.2 °F 29.8 °F 30.23 in Calm   -999.0 mph 42% 0 in
17:44 50.5 °F 31.0 °F 30.24 in Calm   -999.0 mph 47% 0 in
18:00 49.3 °F 28.3 °F 30.24 in Calm   -999.0 mph 44% 0 in
Big Bear CA Weather